SCP
0 0 -0 -0 0 0 -0 0 0 0 0 0 0 0 0 0 0 0 0 0 0 0 0 0 0 0 0 0 0 0 0 0 0 0 0 0 0 0 0 0 -0 0 0 0
0 -0 -0 -0 0 0 0 0 0 0 0 0 0 0 0 0 0 0 0 0 0 0 0 0 0 0 0 0 0 0 0 0 0 -0 0 0 0 0 0 0 0 -0 -0 -0
0 0 0 0 0 0 -0 0 0 0 0 0 0 0 0 0 0 0 0 0 0 0 0 0 0 0 0 0 0 0 0 0 0 0 -0 0 0 0 0 0 -0 -0 -0 0
0 0 0 0 0 0 0 0 0 0 0 0 0 0 0 0 0 0 0 0 0 0 0 0 0 0 0 0 0 0 0 0 0 0 0 0 0 0 0 0 -0 -0 0 -0
0 0 0 0 0 0 0 0 0 0 0 0 0 0 0 0 0 0 0 0 0 0 0 0 0 0 -0 -0 -0 0 0 0 0 0 -0 0 0 0 0 0 0 0 0 -0
0 0 0 0 0 0 0 0 0 0 0 0 0 0 0 0 0 0 0 0 0 0 0 0 0 0 0 0 0 0 0 0 0 -0 0 0 0 0 0 0 0 0 0 0
0 0 0 0 0 0 0 0 0 0 0 0 0 0 0 0 0 0 0 0 0 0 0 0 0 0 0 0 0 0 0 0 0 0 -0 -0 0 0 0 0 0 0 0 0
0 0 0 0 0 0 0 0 0 0 0 0 0 0 0 0 0 0 0 0 0 0 0 0 0 0 0 0 0 0 0 0 0 0 -0 -0 0 0 0 0 0 0 0 0
0 0 0 0 0 0 0 0 0 0 0 0 0 0 0 0 0 0 0 0 0 0 0 0 0 0 0 0 0 0 0 0 0 0 0 0 0 0 0 0 0 0 0 -0
0 0 0 0 0 0 0 0 0 0 0 0 0 0 0 0 0 0 0 0 0 0 0 0 0 0 0 0 0 0 0 0 0 0 0 0 0 0 0 0 -0 -0 0 0
0 0 0 0 0 0 0 0 0 0 0 0 0 0 0 0 0 0 0 0 0 0 0 0 0 0 0 0 0 0 0 0 0 0 0 0 0 0 -0 0 -0 -0 -0 0
0 0 0 0 0 0 0 0 0 0 0 0 0 0 0 -0 -0 0 0 0 0 0 0 0 0 0 0 0 0 0 0 0 0 0 0 0 0 0 0 0 0 -0 -0 0
0 0 0 0 0 0 0 0 0 0 0 0 0 0 0 0 -0 -0 0 0 0 0 0 0 0 0 0 0 0 0 0 0 0 0 0 0 0 0 0 0 0 0 -0 -0
0 0 0 0 0 0 0 0 0 0 0 0 0 0 0 0 0 0 0 0 0 0 0 0 0 0 0 0 0 0 0 -0 0 0 0 0 0 0 0 0 0 0 0 0
0 0 0 0 0 0 0 0 0 0 0 0 0 0 0 0 0 0 0 0 0 0 0 0 0 0 0 0 0 -0 0 0 0 0 0 0 0 0 0 0 0 0 0 0
0 0 0 0 0 0 0 0 0 0 0 0 0 0 0 0 0 0 0 0 0 0 0 0 0 0 0 0 0 0 0 -0 -0 0 0 0 0 0 0 0 0 0 0 0
0 0 0 0 0 0 0 0 0 0 0 0 0 0 0 0 0 0 0 0 0 0 0 0 0 0 0 0 -0 0 0 0 -0 -0 0 -0 -0 -0 -0 0 0 0 -0 -0
0 0 0 0 0 0 0 0 0 -0 0 0 0 0 0 0 0 0 0 0 0 0 0 0 0 0 0 0 0 0 0 0 0 0 0 0 -0 -0 -0 0 0 -0 -0 -0
0 0 0 0 0 0 0 0 0 0 0 0 0 0 0 0 0 0 0 0 0 0 0 0 0 0 0 0 0 0 0 0 0 -0 -0 0 0 0 -0 -0 0 -0 0 -0
0 0 0 0 0 -0 0 0 0 0 0 0 0 0 0 0 0 0 0 0 0 0 0 0 0 0 0 0 0 -0 0 0 0 0 -0 0 -0 -0 -0 0 0 0 0 0
0 0 0 0 0 0 0 0 0 0 0 0 0 0 0 0 0 0 0 0 0 0 0 0 0 0 0 0 0 0 0 0 0 0 0 0 0 -0 -0 0 0 0 0 0
0 0 0 0 0 0 0 0 0 0 0 0 0 0 0 0 0 0 0 0 0 0 0 0 0 0 0 0 0 0 0 0 0 0 0 0 0 0 0 0 0 0 0 0
0 0 0 0 0 0 0 0 0 0 0 0 0 0 0 0 0 0 0 0 0 0 0 0 0 0 0 0 0 0 0 0 0 0 0 0 0 0 0 0 0 0 0 0
0 0 0 0 0 0 0 0 0 0 0 0 0 0 0 0 0 0 0 0 0 0 0 0 0 0 0 0 0 0 0 0 0 0 0 0 0 0 0 0 0 0 0 0
0 0 0 0 0 0 0 0 0 0 0 0 0 0 0 0 0 0 0 0 0 0 0 0 0 0 0 0 0 0 0 0 0 0 0 0 0 0 0 0 0 0 0 0
0 0 0 0 0 0 0 0 0 0 0 0 0 0 0 0 0 0 0 0 0 0 0 0 0 0 0 0 0 0 0 0 0 0 0 0 0 0 0 0 0 0 0 0
0 0 0 0 0 0 0 0 0 0 0 0 0 0 0 0 0 0 0 0 0 0 0 0 -0 -0 -0 0 0 -0 0 0 0 0 0 0 0 0 0 0 0 0 0 0
Wind_Speed_500mb
33 31 33 34 34 33 27 7 8 11 4 13 4 3 3 3 2 4 4 7 8 8 8 14 12 10 14 31 27 37 20 15 23 33 36 13 6 4 27 20 23 24 28 31
32 31 31 30 30 31 30 14 9 9 2 8 6 6 4 5 6 3 5 7 7 3 11 11 8 15 23 26 32 22 24 17 25 29 19 7 2 16 19 22 35 38 28 32
29 29 27 26 24 22 22 9 6 4 2 2 10 6 5 8 4 9 7 11 11 11 17 12 14 27 16 30 38 27 14 24 28 27 40 32 24 23 21 5 17 31 36 35
24 25 23 22 19 15 14 5 4 4 2 6 6 8 4 10 8 8 9 12 15 12 19 22 27 21 29 31 26 20 16 25 29 38 33 35 35 33 31 23 28 16 35 55
26 23 22 21 17 9 5 8 8 4 6 6 12 8 9 13 8 10 11 18 9 15 18 23 29 32 33 38 32 26 28 24 29 35 41 42 36 32 31 27 20 24 26 38
28 23 18 18 15 7 2 6 5 7 7 8 10 8 9 6 4 13 20 15 18 22 20 24 42 52 55 46 38 34 28 21 21 30 32 31 27 20 8 12 15 17 19 32
28 27 19 19 15 13 11 8 4 11 9 11 10 7 11 14 17 22 16 17 21 13 32 47 48 47 44 25 25 23 16 17 18 22 26 32 6 11 2 15 8 6 6 18
28 28 20 22 19 17 12 13 6 8 13 12 17 21 22 21 24 29 33 31 29 26 32 24 23 21 13 8 7 9 16 14 12 18 23 25 20 5 8 17 16 5 6 4
33 30 23 23 22 20 18 14 16 7 14 1 11 13 9 15 14 16 23 18 19 17 20 17 20 16 14 6 3 8 8 12 10 20 22 28 15 7 13 10 8 9 7 8
39 31 24 23 23 20 20 13 18 9 15 19 14 14 13 5 10 12 15 8 10 12 19 19 19 15 3 8 10 7 11 12 18 19 20 1 12 23 16 9 10 18 5 12
36 31 26 24 24 21 19 15 17 12 16 27 25 25 23 19 13 14 9 13 12 14 17 12 8 11 7 12 6 11 8 10 7 8 13 7 26 5 9 10 24 20 10 1
30 29 26 25 26 25 23 15 16 16 18 19 18 27 33 33 32 18 14 11 7 8 10 7 6 8 5 8 3 6 3 12 11 9 6 18 10 4 4 13 11 11 10 14
33 30 25 27 27 28 26 22 15 16 22 35 25 15 17 12 29 41 32 22 13 9 9 14 5 8 8 6 3 10 10 3 5 16 6 8 7 9 9 19 4 12 13 14
35 29 28 30 34 29 27 23 17 15 10 12 2 9 6 13 20 30 41 28 6 10 12 18 10 9 3 7 9 14 9 6 11 10 9 17 9 7 13 12 8 11 12 14
33 28 29 30 32 30 24 21 23 20 10 13 22 31 12 6 13 28 29 36 32 17 15 12 13 12 9 15 9 15 11 8 14 17 17 9 6 14 6 7 7 5 9 10
33 29 27 32 33 31 19 10 23 31 20 10 7 6 3 2 1 28 27 26 24 23 13 15 15 16 12 10 11 10 11 6 22 24 11 6 5 3 12 10 8 10 10 12
33 34 31 36 36 32 21 2 2 10 18 9 11 6 7 8 13 17 20 25 20 19 19 17 27 21 11 14 24 33 30 33 18 8 4 5 8 11 14 8 14 15 13 11
36 38 36 32 32 30 26 21 5 10 6 6 7 6 9 12 12 12 19 17 22 18 16 14 18 10 13 10 19 18 15 14 13 17 18 5 7 8 10 11 11 13 14 11
43 40 39 36 29 14 13 16 15 20 6 9 7 7 6 6 9 7 17 16 11 13 12 19 9 13 11 13 17 12 6 12 3 19 18 15 12 9 11 11 10 13 10 10
51 47 19 12 18 11 17 11 7 8 10 12 11 8 6 3 9 19 12 16 11 10 12 8 10 13 14 22 27 28 22 15 8 19 17 16 17 14 16 14 11 10 9 8
53 19 9 17 28 14 9 8 11 11 9 13 13 14 9 5 9 2 9 2 4 8 9 7 8 5 25 32 25 19 13 18 9 11 2 3 3 14 17 14 10 7 6 3
26 17 26 30 10 9 10 9 8 10 7 13 8 5 11 6 5 10 8 6 3 6 7 6 2 12 30 29 27 23 13 14 15 7 3 6 9 13 14 12 9 5 3 2
43 14 11 12 11 7 11 15 8 7 11 13 12 6 8 9 9 9 6 7 9 6 7 1 8 24 25 31 29 28 24 18 12 14 15 14 14 12 10 9 6 4 5 9
11 13 8 11 11 11 8 8 5 8 6 11 8 7 8 6 10 5 6 3 6 7 1 7 9 18 18 28 28 28 31 27 20 18 19 16 13 12 9 5 3 7 10 11
11 11 8 12 2 5 8 7 6 7 6 7 7 8 9 7 5 5 5 6 5 6 6 6 4 5 10 17 9 13 26 28 20 12 12 10 8 7 8 7 6 6 4 1
6 5 6 8 11 13 12 10 7 4 5 6 8 5 5 5 2 5 6 5 4 6 8 9 1 3 15 11 10 4 14 1 15 8 11 9 7 7 5 4 5 6 4 5
4 5 3 5 8 12 10 8 3 3 8 7 4 6 4 1 4 2 8 7 8 7 3 6 7 12 13 14 10 10 12 10 11 4 7 4 4 5 8 8 8 8 10 11
Wind_Direction_500mb
325 333 340 340 344 349 357 353 257 313 315 246 268 204 7 346 242 190 230 276 283 289 320 309 308 309 324 354 333 325 344 298 295 308 291 325 299 17 316 326 292 281 276 270
322 330 339 339 343 352 359 324 288 316 266 268 188 143 221 263 261 280 253 254 248 284 295 298 286 317 318 329 332 330 328 301 307 279 242 261 104 344 348 316 296 279 268 273
316 322 333 334 338 350 355 322 267 157 215 319 306 267 223 233 226 274 275 291 259 269 275 265 282 301 305 319 313 337 269 267 274 283 305 319 313 308 308 311 274 294 303 344
301 309 321 326 328 344 2 324 54 330 321 150 288 270 311 251 246 223 249 225 247 290 286 288 283 293 311 311 317 301 299 283 284 282 286 285 284 289 295 280 255 268 303 293
290 301 311 318 312 332 13 306 302 246 265 263 259 167 223 264 240 260 233 256 316 284 278 289 303 310 305 307 302 299 304 286 287 288 273 269 276 285 289 281 291 260 285 293
274 281 295 301 287 281 288 281 292 279 152 210 243 248 277 290 286 244 267 289 299 281 316 324 301 291 283 280 284 280 282 277 292 284 291 285 279 286 322 284 265 306 314 347
268 272 282 286 270 236 212 239 248 261 262 247 245 254 252 259 256 275 276 290 278 305 314 306 290 279 270 269 281 248 245 271 277 269 278 267 15 63 34 310 291 260 273 48
265 265 268 274 267 229 206 218 201 263 271 289 257 248 257 266 263 253 260 269 274 294 301 286 313 293 200 167 125 183 217 267 288 268 261 275 172 84 343 325 298 182 117 87
263 256 254 262 256 232 207 219 212 235 291 271 277 261 245 289 277 269 250 259 268 284 278 277 271 292 327 287 279 157 207 252 253 293 287 280 58 48 4 315 305 135 78 69
257 243 245 254 252 225 208 222 211 219 255 269 248 251 295 243 278 274 272 298 260 229 257 264 276 296 358 277 296 315 313 271 266 278 274 130 10 328 327 290 338 340 216 211
243 230 234 240 244 214 208 234 220 217 256 271 259 248 253 258 258 268 35 266 197 249 249 264 285 273 4 273 349 335 305 323 327 309 287 247 6 313 293 2 328 337 326 11
236 220 227 234 234 207 205 225 228 247 251 259 273 254 254 246 244 275 259 319 330 324 273 211 269 248 259 305 291 186 281 2 324 336 332 337 343 231 119 26 326 30 63 104
237 222 224 230 216 200 203 222 242 261 281 288 254 266 264 234 239 235 243 255 248 246 285 320 314 273 262 253 339 296 158 13 278 322 29 9 176 200 186 145 49 63 68 60
225 215 222 220 195 196 202 217 239 245 274 281 166 204 236 272 254 226 219 227 266 252 268 273 279 279 202 313 330 284 11 257 333 315 41 338 160 128 111 129 112 83 69 54
216 212 214 194 185 191 209 227 241 243 225 315 299 291 264 218 250 214 208 212 228 265 260 243 254 273 281 249 276 257 195 21 343 333 2 327 174 75 5 87 78 44 30 19
202 197 183 181 178 187 194 247 253 234 225 278 284 328 221 233 194 184 196 204 215 228 246 257 257 259 273 273 278 309 265 281 316 313 28 352 75 59 45 15 34 63 32 358
194 190 184 175 181 182 188 318 247 190 178 250 278 253 171 164 136 156 189 205 209 219 241 241 260 256 216 275 268 268 276 299 318 269 157 239 177 171 199 159 95 64 49 44
182 177 171 173 187 195 224 241 246 159 221 254 274 265 213 183 178 158 185 184 203 220 245 242 252 218 241 261 271 287 283 298 273 193 189 201 188 174 142 128 103 70 49 51
163 167 166 176 197 184 210 230 232 218 217 288 247 273 101 187 204 169 181 194 206 193 234 235 242 231 221 266 290 299 311 331 86 182 187 205 219 194 168 142 110 71 58 59
158 169 162 170 174 179 171 159 171 192 214 230 255 250 247 274 183 194 201 195 242 213 198 164 234 260 10 348 315 288 275 295 235 188 206 226 230 202 178 159 133 114 113 114
166 169 145 138 149 151 179 195 213 178 228 215 233 241 268 194 257 195 220 186 198 252 133 244 202 157 1 342 338 332 275 224 238 196 226 252 234 171 168 164 153 134 129 139
158 147 125 134 171 190 210 198 178 221 239 186 215 189 212 219 227 254 198 259 222 262 128 246 232 23 351 353 360 15 56 141 181 238 237 143 140 157 164 168 167 175 196 262
140 124 151 177 167 194 211 188 193 210 190 190 190 183 201 189 218 249 252 241 229 138 217 133 50 354 358 19 22 35 53 67 76 90 100 114 119 126 142 155 166 223 290 296
160 180 157 213 179 218 189 195 147 130 188 167 212 214 215 188 199 243 232 254 259 241 279 58 26 346 22 48 35 39 47 57 61 74 85 88 91 92 93 91 3 339 317 297
211 194 203 197 148 175 170 162 201 209 226 236 192 216 239 166 232 204 292 228 229 38 84 53 36 317 1 31 50 12 33 48 15 34 48 47 48 60 65 55 28 2 18 87
222 212 196 148 193 144 162 168 183 152 197 204 229 225 220 191 284 233 224 254 32 80 51 32 322 20 26 13 1 17 189 337 340 19 54 48 67 80 73 28 11 2 348 318
213 156 143 75 84 92 101 124 157 261 215 201 204 208 100 57 240 139 10 29 56 39 26 337 305 282 303 323 344 329 119 132 266 17 40 359 330 310 294 281 288 311 305 293
Wind_Speed_850mb
33 31 33 34 34 33 27 7 8 11 4 13 4 3 3 3 2 4 4 7 8 8 8 14 12 10 14 31 27 37 20 15 23 33 36 13 6 4 27 20 23 24 28 31
32 31 31 30 30 31 30 14 9 9 2 8 6 6 4 5 6 3 5 7 7 3 11 11 8 15 23 26 32 22 24 17 25 29 19 7 2 16 19 22 35 38 28 32
29 29 27 26 24 22 22 9 6 4 2 2 10 6 5 8 4 9 7 11 11 11 17 12 14 27 16 30 38 27 14 24 28 27 40 32 24 23 21 5 17 31 36 35
24 25 23 22 19 15 14 5 4 4 2 6 6 8 4 10 8 8 9 12 15 12 19 22 27 21 29 31 26 20 16 25 29 38 33 35 35 33 31 23 28 16 35 55
26 23 22 21 17 9 5 8 8 4 6 6 12 8 9 13 8 10 11 18 9 15 18 23 29 32 33 38 32 26 28 24 29 35 41 42 36 32 31 27 20 24 26 38
28 23 18 18 15 7 2 6 5 7 7 8 10 8 9 6 4 13 20 15 18 22 20 24 42 52 55 46 38 34 28 21 21 30 32 31 27 20 8 12 15 17 19 32
28 27 19 19 15 13 11 8 4 11 9 11 10 7 11 14 17 22 16 17 21 13 32 47 48 47 44 25 25 23 16 17 18 22 26 32 6 11 2 15 8 6 6 18
28 28 20 22 19 17 12 13 6 8 13 12 17 21 22 21 24 29 33 31 29 26 32 24 23 21 13 8 7 9 16 14 12 18 23 25 20 5 8 17 16 5 6 4
33 30 23 23 22 20 18 14 16 7 14 1 11 13 9 15 14 16 23 18 19 17 20 17 20 16 14 6 3 8 8 12 10 20 22 28 15 7 13 10 8 9 7 8
39 31 24 23 23 20 20 13 18 9 15 19 14 14 13 5 10 12 15 8 10 12 19 19 19 15 3 8 10 7 11 12 18 19 20 1 12 23 16 9 10 18 5 12
36 31 26 24 24 21 19 15 17 12 16 27 25 25 23 19 13 14 9 13 12 14 17 12 8 11 7 12 6 11 8 10 7 8 13 7 26 5 9 10 24 20 10 1
30 29 26 25 26 25 23 15 16 16 18 19 18 27 33 33 32 18 14 11 7 8 10 7 6 8 5 8 3 6 3 12 11 9 6 18 10 4 4 13 11 11 10 14
33 30 25 27 27 28 26 22 15 16 22 35 25 15 17 12 29 41 32 22 13 9 9 14 5 8 8 6 3 10 10 3 5 16 6 8 7 9 9 19 4 12 13 14
35 29 28 30 34 29 27 23 17 15 10 12 2 9 6 13 20 30 41 28 6 10 12 18 10 9 3 7 9 14 9 6 11 10 9 17 9 7 13 12 8 11 12 14
33 28 29 30 32 30 24 21 23 20 10 13 22 31 12 6 13 28 29 36 32 17 15 12 13 12 9 15 9 15 11 8 14 17 17 9 6 14 6 7 7 5 9 10
33 29 27 32 33 31 19 10 23 31 20 10 7 6 3 2 1 28 27 26 24 23 13 15 15 16 12 10 11 10 11 6 22 24 11 6 5 3 12 10 8 10 10 12
33 34 31 36 36 32 21 2 2 10 18 9 11 6 7 8 13 17 20 25 20 19 19 17 27 21 11 14 24 33 30 33 18 8 4 5 8 11 14 8 14 15 13 11
36 38 36 32 32 30 26 21 5 10 6 6 7 6 9 12 12 12 19 17 22 18 16 14 18 10 13 10 19 18 15 14 13 17 18 5 7 8 10 11 11 13 14 11
43 40 39 36 29 14 13 16 15 20 6 9 7 7 6 6 9 7 17 16 11 13 12 19 9 13 11 13 17 12 6 12 3 19 18 15 12 9 11 11 10 13 10 10
51 47 19 12 18 11 17 11 7 8 10 12 11 8 6 3 9 19 12 16 11 10 12 8 10 13 14 22 27 28 22 15 8 19 17 16 17 14 16 14 11 10 9 8
53 19 9 17 28 14 9 8 11 11 9 13 13 14 9 5 9 2 9 2 4 8 9 7 8 5 25 32 25 19 13 18 9 11 2 3 3 14 17 14 10 7 6 3
26 17 26 30 10 9 10 9 8 10 7 13 8 5 11 6 5 10 8 6 3 6 7 6 2 12 30 29 27 23 13 14 15 7 3 6 9 13 14 12 9 5 3 2
43 14 11 12 11 7 11 15 8 7 11 13 12 6 8 9 9 9 6 7 9 6 7 1 8 24 25 31 29 28 24 18 12 14 15 14 14 12 10 9 6 4 5 9
11 13 8 11 11 11 8 8 5 8 6 11 8 7 8 6 10 5 6 3 6 7 1 7 9 18 18 28 28 28 31 27 20 18 19 16 13 12 9 5 3 7 10 11
11 11 8 12 2 5 8 7 6 7 6 7 7 8 9 7 5 5 5 6 5 6 6 6 4 5 10 17 9 13 26 28 20 12 12 10 8 7 8 7 6 6 4 1
6 5 6 8 11 13 12 10 7 4 5 6 8 5 5 5 2 5 6 5 4 6 8 9 1 3 15 11 10 4 14 1 15 8 11 9 7 7 5 4 5 6 4 5
4 5 3 5 8 12 10 8 3 3 8 7 4 6 4 1 4 2 8 7 8 7 3 6 7 12 13 14 10 10 12 10 11 4 7 4 4 5 8 8 8 8 10 11
Wind_Direction_850mb
325 333 340 340 344 349 357 353 257 313 315 246 268 204 7 346 242 190 230 276 283 289 320 309 308 309 324 354 333 325 344 298 295 308 291 325 299 17 316 326 292 281 276 270
322 330 339 339 343 352 359 324 288 316 266 268 188 143 221 263 261 280 253 254 248 284 295 298 286 317 318 329 332 330 328 301 307 279 242 261 104 344 348 316 296 279 268 273
316 322 333 334 338 350 355 322 267 157 215 319 306 267 223 233 226 274 275 291 259 269 275 265 282 301 305 319 313 337 269 267 274 283 305 319 313 308 308 311 274 294 303 344
301 309 321 326 328 344 2 324 54 330 321 150 288 270 311 251 246 223 249 225 247 290 286 288 283 293 311 311 317 301 299 283 284 282 286 285 284 289 295 280 255 268 303 293
290 301 311 318 312 332 13 306 302 246 265 263 259 167 223 264 240 260 233 256 316 284 278 289 303 310 305 307 302 299 304 286 287 288 273 269 276 285 289 281 291 260 285 293
274 281 295 301 287 281 288 281 292 279 152 210 243 248 277 290 286 244 267 289 299 281 316 324 301 291 283 280 284 280 282 277 292 284 291 285 279 286 322 284 265 306 314 347
268 272 282 286 270 236 212 239 248 261 262 247 245 254 252 259 256 275 276 290 278 305 314 306 290 279 270 269 281 248 245 271 277 269 278 267 15 63 34 310 291 260 273 48
265 265 268 274 267 229 206 218 201 263 271 289 257 248 257 266 263 253 260 269 274 294 301 286 313 293 200 167 125 183 217 267 288 268 261 275 172 84 343 325 298 182 117 87
263 256 254 262 256 232 207 219 212 235 291 271 277 261 245 289 277 269 250 259 268 284 278 277 271 292 327 287 279 157 207 252 253 293 287 280 58 48 4 315 305 135 78 69
257 243 245 254 252 225 208 222 211 219 255 269 248 251 295 243 278 274 272 298 260 229 257 264 276 296 358 277 296 315 313 271 266 278 274 130 10 328 327 290 338 340 216 211
243 230 234 240 244 214 208 234 220 217 256 271 259 248 253 258 258 268 35 266 197 249 249 264 285 273 4 273 349 335 305 323 327 309 287 247 6 313 293 2 328 337 326 11
236 220 227 234 234 207 205 225 228 247 251 259 273 254 254 246 244 275 259 319 330 324 273 211 269 248 259 305 291 186 281 2 324 336 332 337 343 231 119 26 326 30 63 104
237 222 224 230 216 200 203 222 242 261 281 288 254 266 264 234 239 235 243 255 248 246 285 320 314 273 262 253 339 296 158 13 278 322 29 9 176 200 186 145 49 63 68 60
225 215 222 220 195 196 202 217 239 245 274 281 166 204 236 272 254 226 219 227 266 252 268 273 279 279 202 313 330 284 11 257 333 315 41 338 160 128 111 129 112 83 69 54
216 212 214 194 185 191 209 227 241 243 225 315 299 291 264 218 250 214 208 212 228 265 260 243 254 273 281 249 276 257 195 21 343 333 2 327 174 75 5 87 78 44 30 19
202 197 183 181 178 187 194 247 253 234 225 278 284 328 221 233 194 184 196 204 215 228 246 257 257 259 273 273 278 309 265 281 316 313 28 352 75 59 45 15 34 63 32 358
194 190 184 175 181 182 188 318 247 190 178 250 278 253 171 164 136 156 189 205 209 219 241 241 260 256 216 275 268 268 276 299 318 269 157 239 177 171 199 159 95 64 49 44
182 177 171 173 187 195 224 241 246 159 221 254 274 265 213 183 178 158 185 184 203 220 245 242 252 218 241 261 271 287 283 298 273 193 189 201 188 174 142 128 103 70 49 51
163 167 166 176 197 184 210 230 232 218 217 288 247 273 101 187 204 169 181 194 206 193 234 235 242 231 221 266 290 299 311 331 86 182 187 205 219 194 168 142 110 71 58 59
158 169 162 170 174 179 171 159 171 192 214 230 255 250 247 274 183 194 201 195 242 213 198 164 234 260 10 348 315 288 275 295 235 188 206 226 230 202 178 159 133 114 113 114
166 169 145 138 149 151 179 195 213 178 228 215 233 241 268 194 257 195 220 186 198 252 133 244 202 157 1 342 338 332 275 224 238 196 226 252 234 171 168 164 153 134 129 139
158 147 125 134 171 190 210 198 178 221 239 186 215 189 212 219 227 254 198 259 222 262 128 246 232 23 351 353 360 15 56 141 181 238 237 143 140 157 164 168 167 175 196 262
140 124 151 177 167 194 211 188 193 210 190 190 190 183 201 189 218 249 252 241 229 138 217 133 50 354 358 19 22 35 53 67 76 90 100 114 119 126 142 155 166 223 290 296
160 180 157 213 179 218 189 195 147 130 188 167 212 214 215 188 199 243 232 254 259 241 279 58 26 346 22 48 35 39 47 57 61 74 85 88 91 92 93 91 3 339 317 297
211 194 203 197 148 175 170 162 201 209 226 236 192 216 239 166 232 204 292 228 229 38 84 53 36 317 1 31 50 12 33 48 15 34 48 47 48 60 65 55 28 2 18 87
222 212 196 148 193 144 162 168 183 152 197 204 229 225 220 191 284 233 224 254 32 80 51 32 322 20 26 13 1 17 189 337 340 19 54 48 67 80 73 28 11 2 348 318
213 156 143 75 84 92 101 124 157 261 215 201 204 208 100 57 240 139 10 29 56 39 26 337 305 282 303 323 344 329 119 132 266 17 40 359 330 310 294 281 288 311 305 293